Tracking 27107 objects as of 22-Mar-2023
HD Live streaming from Space Station
objects crossing your sky now

BREEZE-M R/B

Track BREEZE-M R/B now!


NORAD ID: 43433
Int'l Code: 2018-037B
Perigee: 35,601.3 km
Apogee: 41,942.7 km
Inclination: 4.7 °
Period: 1,590.9 minutes
Semi major axis: 45142 km
RCS: Unknown
Launch date: April 18, 2018
Source: Commonwealth of Independent States (former USSR) (CIS)
Launch site: TYURATAM MISSILE AND SPACE COMPLEX (TTMTR)

Note: This is a ROCKET BODY
Your satellite tracking list
Your tracking list is empty




NASA's NSSDC Master Catalog

Two Line Element Set (TLE):
1 43433U 18037B   23079.88585348 -.00000175  00000-0  00000-0 0  9990
2 43433   4.7440  83.4194 0702368   1.1656 359.2736  0.90514427 16488
Source of the keplerian elements: AFSPC